Regional Weather Roundup
Issued by NWS

Home | Current Version | Previous Version | Graphics & Text | Print | Product List | Glossary On
Versions: 1 2 3 4 5 6 7 8 9 10 11 12 13 14 15 16 17 18 19 20 21 22 23 24 25 26 27 28 29 30 31 32 33 34 35 36 37 38 39 40 41 42 43 44 45 46 47 48 49 50
000
ASUS43 KLSX 281657
RWRMO

WEATHER SUMMARY FOR MISSOURI
NATIONAL WEATHER SERVICE SPRINGFIELD MO
1200 PM CDT SAT MAY 28 2016

NOTE: "FAIR" INDICATES FEW OR NO CLOUDS BELOW 12,000 FEET WITH NO
       SIGNIFICANT WEATHER AND/OR OBSTRUCTIONS TO VISIBILITY.
       CURRENT SKY AND/OR WEATHER CONDITIONS ARE NOT AVAILABLE FOR
       CHILLICOTHE AND FARMINGTON.

MOZ001>031-035>038-043-044-053-054-281800-
...NORTHERN AND WESTERN MISSOURI...

CITY           SKY/WX    TMP DP  RH WIND       PRES   REMARKS
KANSAS CTY INT PTSUNNY   70  62  76 SW14      29.86R
LEE`S SUMMIT   PTSUNNY   70  61  73 SW16      29.87R
ST JOSEPH      MOSUNNY   71  61  70 W15       29.83R
CHILLICOTHE      N/A     72  62  71 S12G22    29.85R

$$
MOZ066>068-077>081-088>096-101>105-281800-
...SOUTHWEST MISSOURI...

CITY           SKY/WX    TMP DP  RH WIND       PRES   REMARKS
SPRINGFIELD    MOSUNNY   77  64  64 SW13      29.94R
JOPLIN         PTSUNNY   75  63  66 S15G23    29.94R
BRANSON        MOSUNNY   75  64  69 W6        29.98S

$$
MOZ032>034-039>042-045>050-055>058-069>072-281800-
...CENTRAL MISSOURI...

CITY           SKY/WX    TMP DP  RH WIND       PRES   REMARKS
COLUMBIA       NOT AVBL
JEFFERSON CITY MOSUNNY   78  65  63 S14G23    29.89S
ROLLA          MOSUNNY   77  66  68 S13       29.93R
SEDALIA        PTSUNNY   77  64  64 SW17G24   29.90R
WARRENSBURG    CLOUDY    72  61  68 S16G22    29.88R

$$
MOZ051-052-059>065-281800-
...EAST CENTRAL MISSOURI...

CITY           SKY/WX    TMP DP  RH WIND       PRES   REMARKS
ST LOUIS INTL  NOT AVBL

$$
MOZ072>076-082>087-097>100-106>115-281800-
...SOUTH CENTRAL AND SOUTHEAST MISSOURI...

CITY           SKY/WX    TMP DP  RH WIND       PRES   REMARKS
CAPE GIRARDEAU MOSUNNY   78  69  73 S10       30.00S
POPLAR BLUFF   MOSUNNY   79  69  71 S8        29.99R
WEST PLAINS    MOSUNNY   76  64  66 S10       29.99R

$$


USA.gov is the U.S. government's official web portal to all federal, state and local government web resources and services.